Powrót do katalogu

GLOBALSTAR M105

AktywnyŁącznośćLEO
NORAD 100331·PAYLOAD·🇺🇸 United States

Wystrzelony Aug 16, 2026 z Cape Canaveral Space Force Station

Loading…

Następne Przeloty (najbliższe 24 godziny)

TLE

ŚwieżeSource: Space-Track

Epoka: Sep 14, 2026, 14:30 UTC

1 A0331U 26185G   26257.60483673  .00000225  00000-0  79601-4 0  9994
2 A0331  51.9950 110.8855 0008844 328.2922  31.7501 14.63940762  4326

Śledź GLOBALSTAR M105 w czasie rzeczywistym z AllMySat

Download on the App Store